TimeCDT,TemperatureF,Dew PointF,Humidity,Sea Level PressureIn,VisibilityMPH,Wind Direction,Wind SpeedMPH,Gust SpeedMPH,PrecipitationIn,Events,Conditions,WindDirDegrees,DateUTC
12:53 AM,73.0,59.0,61,30.00,10.0,SE,8.1,-,N/A,,Mostly Cloudy,140,2013-09-12 05:53:00
1:53 AM,70.0,59.0,68,30.00,10.0,ESE,6.9,-,N/A,,Mostly Cloudy,110,2013-09-12 06:53:00
2:53 AM,68.0,59.0,73,30.00,10.0,ESE,5.8,-,N/A,,Mostly Cloudy,110,2013-09-12 07:53:00
3:53 AM,66.9,57.9,73,29.99,10.0,ESE,5.8,-,N/A,,Scattered Clouds,120,2013-09-12 08:53:00
4:53 AM,66.0,59.0,78,30.00,10.0,SE,4.6,-,N/A,,Mostly Cloudy,130,2013-09-12 09:53:00
5:53 AM,66.0,59.0,78,30.00,10.0,SE,4.6,-,N/A,,Scattered Clouds,130,2013-09-12 10:53:00
6:53 AM,64.0,57.9,80,30.02,10.0,ESE,4.6,-,N/A,,Mostly Cloudy,120,2013-09-12 11:53:00
7:53 AM,63.0,57.9,84,30.04,10.0,Calm,Calm,-,N/A,,Scattered Clouds,0,2013-09-12 12:53:00
8:53 AM,70.0,60.1,71,30.05,10.0,SSE,5.8,-,N/A,,Scattered Clouds,150,2013-09-12 13:53:00
9:53 AM,75.0,62.1,64,30.06,10.0,South,11.5,-,N/A,,Scattered Clouds,170,2013-09-12 14:53:00
10:53 AM,79.0,61.0,54,30.06,10.0,South,11.5,-,N/A,,Mostly Cloudy,180,2013-09-12 15:53:00
11:53 AM,80.1,59.0,48,30.05,10.0,South,12.7,-,N/A,,Mostly Cloudy,190,2013-09-12 16:53:00
12:53 PM,81.0,59.0,47,30.04,10.0,South,6.9,-,N/A,,Overcast,180,2013-09-12 17:53:00
1:53 PM,82.9,57.0,41,30.02,10.0,SE,9.2,-,N/A,,Overcast,140,2013-09-12 18:53:00
2:53 PM,86.0,55.9,36,29.99,10.0,South,11.5,20.7,N/A,,Mostly Cloudy,170,2013-09-12 19:53:00
3:53 PM,84.9,55.9,37,29.96,10.0,SSE,16.1,21.9,N/A,,Mostly Cloudy,150,2013-09-12 20:53:00
4:53 PM,84.9,55.0,36,29.94,10.0,SE,13.8,21.9,N/A,,Mostly Cloudy,130,2013-09-12 21:53:00
5:53 PM,84.0,55.9,38,29.94,10.0,ESE,17.3,-,N/A,,Mostly Cloudy,110,2013-09-12 22:53:00
6:53 PM,84.0,55.0,37,29.95,10.0,ESE,10.4,-,0.00,,Mostly Cloudy,110,2013-09-12 23:53:00
7:53 PM,81.0,54.0,39,29.96,10.0,ESE,5.8,-,N/A,,Mostly Cloudy,110,2013-09-13 00:53:00
8:53 PM,77.0,54.0,45,29.96,10.0,ESE,5.8,-,N/A,,Mostly Cloudy,120,2013-09-13 01:53:00
9:53 PM,73.9,54.0,50,29.98,10.0,ESE,5.8,-,N/A,,Mostly Cloudy,110,2013-09-13 02:53:00
10:53 PM,73.9,55.0,52,29.98,10.0,ESE,6.9,-,N/A,,Mostly Cloudy,120,2013-09-13 03:53:00
11:53 PM,73.0,55.9,55,29.97,10.0,ESE,6.9,-,N/A,,Mostly Cloudy,110,2013-09-13 04:53:00